Radiation Dose at Monitoring Post of Fukushima Daini Nuclear Power Station
Date,Time,MP-1(microSv/h),MP-2(microSv/h),MP-3(microSv/h),MP-4(microSv/h),MP-5(microSv/h),MP-6(microSv/h),MP-7(microSv/h),Wind Direction,Wind Velocity(m/s),Rain
2018/04/07,00:00,0.324,0.210,0.336,0.319,0.303,0.167,0.103,north,6.0,No
2018/04/07,00:10,0.325,0.210,0.337,0.318,0.303,0.168,0.103,north-northeast,5.4,No
2018/04/07,00:20,0.324,0.210,0.337,0.320,0.303,0.167,0.102,north,5.3,No
2018/04/07,00:30,0.325,0.207,0.335,0.318,0.303,0.167,0.101,north-northeast,5.5,No
2018/04/07,00:40,0.322,0.209,0.335,0.317,0.303,0.166,0.101,-,CALM,Yes
2018/04/07,00:50,0.322,0.209,0.336,0.319,0.303,0.166,0.101,north-northeast,6.2,Yes
2018/04/07,01:00,0.322,0.209,0.334,0.318,0.303,0.167,0.101,north,6.3,Yes
2018/04/07,01:10,0.323,0.210,0.333,0.318,0.302,0.167,0.102,-,CALM,Yes
2018/04/07,01:20,0.322,0.209,0.335,0.319,0.302,0.167,0.102,north,5.5,Yes
2018/04/07,01:30,0.322,0.209,0.334,0.318,0.302,0.167,0.102,-,CALM,Yes
2018/04/07,01:40,0.323,0.209,0.334,0.316,0.302,0.167,0.101,north,5.9,No
2018/04/07,01:50,0.319,0.208,0.335,0.317,0.302,0.166,0.102,north,6.4,Yes
2018/04/07,02:00,0.323,0.208,0.334,0.317,0.302,0.167,0.102,north,6.8,Yes
2018/04/07,02:10,0.322,0.209,0.334,0.316,0.303,0.167,0.101,north,7.3,No
2018/04/07,02:20,0.321,0.208,0.334,0.317,0.302,0.165,0.101,north,6.2,No
2018/04/07,02:30,0.322,0.207,0.333,0.317,0.301,0.166,0.101,north,6.0,No
2018/04/07,02:40,0.321,0.207,0.332,0.315,0.302,0.164,0.101,north,6.1,No
2018/04/07,02:50,0.320,0.207,0.332,0.315,0.300,0.165,0.099,north,4.6,No
2018/04/07,03:00,0.322,0.206,0.333,0.315,0.300,0.165,0.100,north,4.1,Yes
2018/04/07,03:10,0.320,0.208,0.333,0.314,0.301,0.164,0.099,north,4.6,Yes
2018/04/07,03:20,0.320,0.208,0.335,0.316,0.302,0.166,0.101,north,6.6,Yes
2018/04/07,03:30,0.321,0.209,0.333,0.316,0.300,0.165,0.101,north-northeast,5.7,Yes
2018/04/07,03:40,0.322,0.207,0.332,0.315,0.301,0.166,0.102,-,CALM,Yes
2018/04/07,03:50,0.321,0.208,0.331,0.315,0.301,0.168,0.104,-,CALM,Yes
2018/04/07,04:00,0.320,0.211,0.332,0.315,0.302,0.169,0.105,-,CALM,Yes
2018/04/07,04:10,0.320,0.210,0.331,0.317,0.303,0.171,0.108,-,CALM,Yes
2018/04/07,04:20,0.319,0.211,0.330,0.313,0.303,0.172,0.109,north-northwest,3.4,Yes
2018/04/07,04:30,0.323,0.213,0.332,0.317,0.305,0.173,0.110,north,5.2,Yes
2018/04/07,04:40,0.323,0.213,0.333,0.319,0.307,0.172,0.111,west-northwest,2.0,Yes
2018/04/07,04:50,0.321,0.214,0.332,0.317,0.308,0.173,0.111,north,4.3,Yes
2018/04/07,05:00,0.321,0.211,0.333,0.317,0.307,0.172,0.111,north,5.4,Yes
2018/04/07,05:10,0.321,0.212,0.332,0.318,0.307,0.172,0.110,north,5.7,Yes
2018/04/07,05:20,0.321,0.212,0.330,0.316,0.306,0.171,0.109,north,5.9,Yes
2018/04/07,05:30,0.321,0.213,0.332,0.316,0.306,0.171,0.109,north,6.5,Yes
2018/04/07,05:40,0.318,0.212,0.331,0.317,0.306,0.171,0.109,north,6.5,Yes
2018/04/07,05:50,0.320,0.211,0.327,0.314,0.305,0.171,0.109,north,6.5,Yes
2018/04/07,06:00,0.320,0.211,0.329,0.313,0.305,0.169,0.108,north,6.1,Yes
2018/04/07,06:10,0.320,0.210,0.330,0.314,0.305,0.169,0.107,north,6.1,Yes
2018/04/07,06:20,0.319,0.210,0.327,0.313,0.305,0.168,0.108,north,6.2,Yes
2018/04/07,06:30,0.319,0.209,0.329,0.312,0.303,0.168,0.107,north-northwest,6.2,Yes
2018/04/07,06:40,0.319,0.211,0.328,0.313,0.303,0.167,0.107,north,5.4,Yes
2018/04/07,06:50,0.319,0.209,0.327,0.311,0.304,0.169,0.106,north,5.7,Yes
2018/04/07,07:00,0.319,0.210,0.326,0.312,0.303,0.168,0.106,north-northwest,5.7,Yes
2018/04/07,07:10,0.318,0.209,0.327,0.311,0.303,0.167,0.105,north-northwest,5.5,Yes
2018/04/07,07:20,0.319,0.208,0.327,0.311,0.302,0.167,0.105,north,5.6,Yes
2018/04/07,07:30,0.318,0.208,0.326,0.309,0.301,0.167,0.104,north,5.8,Yes
2018/04/07,07:40,0.318,0.208,0.327,0.310,0.302,0.167,0.103,north,5.4,Yes
2018/04/07,07:50,0.318,0.206,0.325,0.310,0.301,0.165,0.103,north,5.0,Yes
2018/04/07,08:00,0.317,0.206,0.324,0.310,0.301,0.164,0.104,north,4.8,No
2018/04/07,08:10,0.316,0.206,0.325,0.310,0.301,0.165,0.103,north,4.7,No
2018/04/07,08:20,0.316,0.206,0.325,0.310,0.301,0.164,0.102,north,4.6,Yes
2018/04/07,08:30,0.319,0.206,0.326,0.310,0.301,0.165,0.103,north,4.2,Yes
2018/04/07,08:40,0.317,0.207,0.327,0.309,0.302,0.165,0.102,north,4.1,Yes
2018/04/07,08:50,0.317,0.207,0.327,0.311,0.302,0.166,0.104,north,4.3,Yes
2018/04/07,09:00,0.319,0.208,0.326,0.309,0.303,0.166,0.104,north-northwest,4.3,Yes
2018/04/07,09:10,0.317,0.207,0.327,0.310,0.302,0.165,0.104,north,3.8,No
2018/04/07,09:20,0.317,0.206,0.326,0.311,0.301,0.165,0.103,north,3.1,No
2018/04/07,09:30,0.317,0.206,0.324,0.309,0.302,0.164,0.102,north-northwest,3.4,No
2018/04/07,09:40,0.314,0.205,0.325,0.308,0.300,0.164,0.101,north,3.0,No
2018/04/07,09:50,0.316,0.204,0.325,0.308,0.299,0.163,0.101,north,2.8,No
2018/04/07,10:00,0.315,0.203,0.322,0.307,0.299,0.162,0.100,north,2.0,No
2018/04/07,10:10,0.315,0.203,0.324,0.307,0.298,0.162,0.099,north-northwest,2.3,No
2018/04/07,10:20,0.314,0.202,0.323,0.308,0.298,0.161,0.099,north-northwest,1.8,No
2018/04/07,10:30,0.314,0.203,0.321,0.306,0.300,0.162,0.099,northwest,2.0,No
2018/04/07,10:40,0.313,0.203,0.323,0.307,0.298,0.161,0.100,north,1.2,Yes
2018/04/07,10:50,0.314,0.202,0.323,0.307,0.299,0.161,0.099,northeast,2.3,No
2018/04/07,11:00,0.313,0.202,0.321,0.306,0.298,0.160,0.098,northeast,2.7,No
2018/04/07,11:10,0.313,0.201,0.322,0.307,0.296,0.161,0.099,northeast,2.6,No
2018/04/07,11:20,0.314,0.200,0.321,0.306,0.299,0.160,0.098,northeast,2.7,No
2018/04/07,11:30,0.313,0.203,0.322,0.306,0.297,0.161,0.097,northeast,2.4,No
2018/04/07,11:40,0.314,0.200,0.321,0.307,0.297,0.160,0.097,northeast,2.4,No
2018/04/07,11:50,0.313,0.200,0.320,0.304,0.297,0.159,0.097,northeast,3.0,No
2018/04/07,12:00,0.313,0.201,0.322,0.305,0.296,0.159,0.098,northeast,2.1,No
2018/04/07,12:10,0.314,0.201,0.322,0.306,0.298,0.160,0.097,east-northeast,1.1,No
2018/04/07,12:20,0.313,0.201,0.322,0.304,0.296,0.160,0.098,northeast,1.8,No
2018/04/07,12:30,0.314,0.201,0.322,0.306,0.298,0.158,0.096,north-northwest,1.0,No
2018/04/07,12:40,0.314,0.200,0.320,0.305,0.297,0.160,0.097,north,1.9,No
2018/04/07,12:50,0.313,0.201,0.323,0.304,0.297,0.160,0.096,north,2.6,No
2018/04/07,13:00,0.312,0.200,0.320,0.305,0.298,0.159,0.097,north,2.1,Yes
2018/04/07,13:10,0.312,0.201,0.321,0.304,0.297,0.161,0.096,north-northeast,2.1,Yes
2018/04/07,13:20,0.314,0.201,0.321,0.306,0.298,0.159,0.097,north-northeast,1.7,Yes
2018/04/07,13:30,0.315,0.202,0.321,0.308,0.298,0.160,0.098,northeast,1.3,Yes
2018/04/07,13:40,0.313,0.203,0.323,0.308,0.298,0.162,0.098,northeast,1.3,Yes
2018/04/07,13:50,0.316,0.202,0.324,0.308,0.301,0.162,0.099,north,0.7,Yes
2018/04/07,14:00,0.314,0.203,0.322,0.307,0.298,0.162,0.098,east-northeast,0.6,Yes
2018/04/07,14:10,0.316,0.203,0.322,0.306,0.299,0.163,0.099,north,1.2,Yes
2018/04/07,14:20,0.318,0.204,0.325,0.309,0.299,0.163,0.101,east-northeast,1.3,Yes
2018/04/07,14:30,0.318,0.204,0.324,0.309,0.301,0.167,0.103,-,CALM,Yes
2018/04/07,14:40,0.320,0.207,0.326,0.311,0.305,0.169,0.106,north-northeast,2.4,Yes
2018/04/07,14:50,0.322,0.209,0.329,0.313,0.302,0.171,0.108,-,CALM,Yes
2018/04/07,15:00,0.322,0.209,0.329,0.313,0.304,0.172,0.109,west-northwest,4.0,Yes
2018/04/07,15:10,0.323,0.211,0.330,0.313,0.307,0.174,0.110,-,CALM,Yes
2018/04/07,15:20,0.322,0.211,0.331,0.314,0.306,0.174,0.109,-,CALM,Yes
2018/04/07,15:30,0.324,0.212,0.330,0.314,0.309,0.174,0.110,-,CALM,Yes
2018/04/07,15:40,0.324,0.212,0.332,0.314,0.307,0.173,0.109,-,CALM,Yes
2018/04/07,15:50,0.324,0.211,0.330,0.314,0.306,0.172,0.108,northwest,5.8,Yes
2018/04/07,16:00,0.323,0.211,0.328,0.314,0.305,0.170,0.107,northwest,5.2,Yes
2018/04/07,16:10,0.322,0.211,0.329,0.314,0.305,0.171,0.107,north-northwest,4.9,Yes
2018/04/07,16:20,0.322,0.210,0.328,0.312,0.306,0.171,0.107,north-northwest,6.6,Yes
2018/04/07,16:30,0.320,0.209,0.328,0.312,0.304,0.169,0.105,north-northwest,6.0,Yes
2018/04/07,16:40,0.320,0.207,0.327,0.310,0.301,0.168,0.104,north-northwest,6.0,Yes
2018/04/07,16:50,0.318,0.207,0.325,0.308,0.303,0.167,0.104,north-northwest,7.4,Yes
2018/04/07,17:00,0.318,0.206,0.326,0.309,0.301,0.166,0.103,northwest,8.1,Yes
2018/04/07,17:10,0.316,0.204,0.323,0.307,0.299,0.164,0.101,north-northwest,8.8,Yes
2018/04/07,17:20,0.316,0.203,0.324,0.306,0.299,0.164,0.100,northwest,6.5,Yes
2018/04/07,17:30,0.316,0.204,0.325,0.306,0.299,0.162,0.101,northwest,5.2,Yes
2018/04/07,17:40,0.316,0.202,0.321,0.307,0.297,0.162,0.099,northwest,6.4,Yes
2018/04/07,17:50,0.316,0.202,0.321,0.308,0.299,0.161,0.099,north-northwest,5.9,Yes
2018/04/07,18:00,0.317,0.203,0.322,0.305,0.298,0.161,0.099,north-northwest,5.3,Yes
2018/04/07,18:10,0.315,0.201,0.321,0.306,0.298,0.160,0.099,north-northwest,6.7,No
2018/04/07,18:20,0.315,0.201,0.320,0.306,0.298,0.160,0.097,north-northwest,8.1,No
2018/04/07,18:30,0.314,0.202,0.321,0.305,0.296,0.160,0.098,north-northwest,7.5,Yes
2018/04/07,18:40,0.315,0.201,0.322,0.304,0.296,0.160,0.097,north-northwest,7.4,Yes
2018/04/07,18:50,0.315,0.200,0.319,0.305,0.298,0.161,0.097,north-northwest,6.1,Yes
2018/04/07,19:00,0.315,0.201,0.323,0.306,0.298,0.161,0.097,north-northwest,5.8,Yes
2018/04/07,19:10,0.315,0.202,0.322,0.305,0.298,0.160,0.098,north-northwest,6.4,Yes
2018/04/07,19:20,0.316,0.202,0.323,0.304,0.297,0.160,0.097,north-northwest,7.8,Yes
2018/04/07,19:30,0.315,0.201,0.321,0.306,0.298,0.160,0.097,north-northwest,7.7,Yes
2018/04/07,19:40,0.316,0.201,0.322,0.304,0.297,0.161,0.097,north-northwest,9.0,Yes
2018/04/07,19:50,0.316,0.202,0.322,0.305,0.297,0.160,0.098,north-northwest,8.6,Yes
2018/04/07,20:00,0.316,0.201,0.323,0.306,0.298,0.161,0.098,north,4.5,Yes
2018/04/07,20:10,0.317,0.203,0.322,0.308,0.298,0.161,0.098,north-northwest,2.9,Yes
2018/04/07,20:20,0.317,0.203,0.324,0.306,0.299,0.162,0.098,north-northwest,3.3,Yes
2018/04/07,20:30,0.316,0.202,0.322,0.308,0.298,0.162,0.099,north-northwest,4.4,Yes
2018/04/07,20:40,0.315,0.202,0.321,0.307,0.297,0.161,0.099,north-northwest,4.6,Yes
2018/04/07,20:50,0.317,0.201,0.324,0.306,0.298,0.161,0.098,north,6.0,Yes
2018/04/07,21:00,0.316,0.201,0.323,0.304,0.297,0.162,0.098,north,5.6,Yes
2018/04/07,21:10,0.316,0.202,0.321,0.305,0.297,0.160,0.097,north-northwest,7.5,Yes
2018/04/07,21:20,0.316,0.203,0.321,0.304,0.297,0.160,0.098,north-northwest,5.4,No
2018/04/07,21:30,0.315,0.201,0.322,0.305,0.299,0.160,0.096,north,4.0,No
2018/04/07,21:40,0.315,0.200,0.321,0.303,0.296,0.160,0.096,north,3.1,No
2018/04/07,21:50,0.316,0.200,0.320,0.307,0.296,0.161,0.098,north,3.2,No
2018/04/07,22:00,0.316,0.200,0.321,0.306,0.297,0.160,0.097,north-northeast,2.5,No
2018/04/07,22:10,0.313,0.200,0.321,0.304,0.298,0.160,0.098,north-northwest,1.4,No
2018/04/07,22:20,0.315,0.200,0.321,0.304,0.296,0.161,0.097,northwest,1.4,No
2018/04/07,22:30,0.315,0.202,0.322,0.306,0.295,0.161,0.097,north-northwest,0.9,No
2018/04/07,22:40,0.315,0.201,0.322,0.305,0.297,0.160,0.098,west-northwest,1.2,No
2018/04/07,22:50,0.315,0.201,0.321,0.305,0.296,0.159,0.097,west,1.4,No
2018/04/07,23:00,0.315,0.202,0.321,0.304,0.296,0.159,0.097,west-northwest,1.0,No
2018/04/07,23:10,0.315,0.201,0.322,0.305,0.297,0.161,0.098,northwest,1.7,No
2018/04/07,23:20,0.315,0.201,0.320,0.304,0.296,0.161,0.097,north-northwest,2.0,No
2018/04/07,23:30,0.316,0.202,0.322,0.306,0.297,0.160,0.097,northwest,3.4,No
2018/04/07,23:40,0.316,0.201,0.322,0.304,0.297,0.160,0.096,west-northwest,2.3,No
2018/04/07,23:50,0.315,0.200,0.321,0.305,0.297,0.160,0.097,northwest,2.4,No
